| time (UTC) | temp F | wind direction | speed MPH | gust MPH | rain 1hr in | rain 24hr in | rain mn in | humidity % | barometer mb |
| 20260506011939 | 47 | 295 | 0.0 | 0.0 | 0.00 | 0.00 | 0.03 | 99 | 1008.6 |
| 20260506010915 | 48 | 295 | 0.0 | 0.0 | 0.00 | 0.00 | 0.03 | 99 | 1008.5 |
| 20260506005851 | 48 | 295 | 0.0 | 0.0 | 0.00 | 0.00 | 0.03 | 99 | 1008.8 |
| 20260506004840 | 48 | 295 | 0.0 | 0.0 | 0.00 | 0.00 | 0.03 | 99 | 1008.8 |
| 20260506003819 | 48 | 295 | 0.0 | 0.0 | 0.00 | 0.00 | 0.03 | 99 | 1008.9 |
| 20260506002755 | 47 | 295 | 0.0 | 0.0 | 0.00 | 0.00 | 0.03 | 99 | 1009.2 |
| 20260506001740 | 47 | 295 | 0.0 | 0.0 | 0.00 | 0.00 | 0.03 | 99 | 1009.1 |
| 20260506000723 | 48 | 295 | 0.0 | 0.0 | 0.04 | 0.00 | 0.03 | 99 | 1009.4 |
| 20260505235700 | 48 | 295 | 0.0 | 0.0 | 0.07 | 0.00 | 0.02 | 99 | 1009.6 |
| 20260505234640 | 48 | 295 | 0.0 | 0.0 | 0.07 | 0.00 | 0.01 | 99 | 1010.0 |
| 20260505233627 | 48 | 295 | 0.0 | 0.0 | 0.00 | 0.00 | 0.00 | 99 | 1009.9 |
| 20260505232603 | 48 | 295 | 0.0 | 0.0 | 0.00 | 0.00 | 0.00 | 99 | 1010.1 |
| 20260505231539 | 48 | 295 | 0.0 | 0.0 | 0.00 | 0.00 | 0.00 | 99 | 1010.3 |
| 20260505230515 | 48 | 295 | 0.0 | 0.0 | 0.00 | 0.00 | 0.00 | 99 | 1010.1 |
| 20260505225452 | 48 | 295 | 0.0 | 0.0 | 0.00 | 0.00 | 0.71 | 99 | 1010.4 |
| 20260505224441 | 48 | 295 | 0.0 | 0.0 | 0.00 | 0.00 | 0.71 | 99 | 1010.3 |
| 20260505223421 | 48 | 295 | 0.0 | 0.0 | 0.00 | 0.00 | 0.71 | 99 | 1010.0 |
| 20260505222355 | 48 | 295 | 0.0 | 0.0 | 0.00 | 0.00 | 0.71 | 99 | 1010.3 |
| 20260505221340 | 48 | 295 | 0.0 | 0.0 | 0.00 | 0.00 | 0.71 | 99 | 1010.0 |
| 20260505220323 | 48 | 295 | 0.0 | 0.0 | 0.00 | 0.00 | 0.71 | 99 | 1010.6 |
| 20260505215300 | 48 | 295 | 0.0 | 0.0 | 0.00 | 0.00 | 0.71 | 99 | 1010.3 |
| 20260505214240 | 48 | 295 | 0.0 | 0.0 | 0.00 | 0.00 | 0.71 | 99 | 1010.6 |
| 20260505213228 | 48 | 295 | 0.0 | 0.0 | 0.00 | 0.00 | 0.71 | 99 | 1010.5 |
| 20260505212204 | 49 | 295 | 0.0 | 0.0 | 0.00 | 0.00 | 0.71 | 99 | 1010.6 |
| 20260505211139 | 49 | 295 | 0.0 | 0.0 | 0.00 | 0.00 | 0.71 | 99 | 1010.7 |
| 20260505210115 | 49 | 295 | 0.0 | 0.0 | 0.00 | 0.00 | 0.71 | 99 | 1010.9 |
| 20260505205052 | 49 | 294 | 0.0 | 0.0 | 0.00 | 0.00 | 0.71 | 99 | 1010.8 |
| 20260505204040 | 49 | 295 | 0.0 | 0.0 | 0.00 | 0.00 | 0.71 | 99 | 1011.0 |
| 20260505203020 | 49 | 295 | 0.0 | 0.0 | 0.00 | 0.00 | 0.71 | 99 | 1011.1 |
| 20260505201956 | 49 | 295 | 0.0 | 0.0 | 0.00 | 0.00 | 0.71 | 99 | 1011.0 |
| 20260505200941 | 49 | 295 | 0.0 | 0.0 | 0.00 | 0.00 | 0.71 | 99 | 1011.0 |
| 20260505195923 | 49 | 295 | 0.0 | 0.0 | 0.00 | 0.00 | 0.71 | 99 | 1010.8 |
| 20260505194859 | 49 | 295 | 0.0 | 0.0 | 0.00 | 0.00 | 0.71 | 99 | 1010.8 |
| 20260505193840 | 49 | 294 | 0.0 | 0.0 | 0.00 | 0.00 | 0.71 | 99 | 1010.7 |
| 20260505192828 | 49 | 294 | 0.0 | 0.0 | 0.00 | 0.00 | 0.71 | 99 | 1010.6 |
| 20260505191803 | 49 | 295 | 0.0 | 0.0 | 0.00 | 0.00 | 0.71 | 98 | 1010.6 |
| 20260505190740 | 49 | 295 | 0.0 | 0.0 | 0.00 | 0.00 | 0.71 | 98 | 1010.4 |
| 20260505185716 | 49 | 294 | 0.0 | 0.0 | 0.00 | 0.00 | 0.71 | 98 | 1010.5 |
| 20260505184651 | 50 | 294 | 0.0 | 0.0 | 0.00 | 0.00 | 0.71 | 97 | 1010.4 |
| 20260505183640 | 50 | 294 | 0.0 | 0.0 | 0.00 | 0.00 | 0.71 | 97 | 1010.5 |
| 20260505182625 | 50 | 294 | 0.0 | 0.0 | 0.04 | 0.00 | 0.71 | 97 | 1010.6 |
| 20260505181556 | 50 | 294 | 0.0 | 1.0 | 0.00 | 0.00 | 0.70 | 96 | 1010.4 |
| 20260505180540 | 50 | 294 | 0.0 | 0.0 | 0.00 | 0.00 | 0.70 | 95 | 1010.6 |
| 20260505175523 | 50 | 294 | 0.0 | 1.0 | 0.00 | 0.00 | 0.70 | 95 | 1010.7 |
| 20260505174459 | 50 | 295 | 0.0 | 0.0 | 0.00 | 0.00 | 0.70 | 96 | 1010.7 |
| 20260505173440 | 50 | 294 | 0.0 | 0.0 | 0.00 | 0.00 | 0.70 | 96 | 1010.6 |
| 20260505172427 | 50 | 294 | 0.0 | 0.0 | 0.00 | 0.00 | 0.70 | 97 | 1010.7 |
| 20260505171404 | 49 | 294 | 0.0 | 0.0 | 0.00 | 0.00 | 0.70 | 97 | 1010.5 |
| 20260505170339 | 50 | 294 | 0.0 | 1.0 | 0.00 | 0.00 | 0.70 | 96 | 1010.7 |
| 20260505165315 | 50 | 293 | 1.0 | 1.0 | 0.00 | 0.00 | 0.70 | 95 | 1010.6 |
| 20260505164251 | 50 | 293 | 1.0 | 2.0 | 0.00 | 0.00 | 0.70 | 94 | 1010.6 |
| 20260505163241 | 50 | 294 | 0.0 | 1.0 | 0.00 | 0.00 | 0.70 | 93 | 1010.7 |
| 20260505162220 | 50 | 294 | 0.0 | 1.0 | 0.00 | 0.00 | 0.70 | 93 | 1010.6 |
| 20260505161159 | 51 | 293 | 0.0 | 1.0 | 0.00 | 0.00 | 0.70 | 92 | 1010.7 |
| 20260505160141 | 51 | 294 | 0.0 | 0.0 | 0.00 | 0.00 | 0.70 | 93 | 1010.6 |
| 20260505153040 | 51 | 293 | 1.0 | 1.0 | 0.00 | 0.00 | 0.70 | 92 | 1010.7 |
| 20260505152027 | 51 | 293 | 0.0 | 1.0 | 0.00 | 0.00 | 0.70 | 92 | 1010.7 |
| 20260505151003 | 51 | 293 | 0.0 | 0.0 | 0.00 | 0.00 | 0.70 | 91 | 1010.7 |
| 20260505124532 | 54 | 294 | 0.0 | 0.0 | 0.00 | 0.00 | 0.70 | 86 | 1011.1 |
| 20260505123524 | 54 | 295 | 0.0 | 1.0 | 0.00 | 0.00 | 0.70 | 86 | 1011.0 |
| 20260505122515 | 53 | 293 | 2.0 | 3.0 | 0.00 | 0.00 | 0.70 | 88 | 1011.3 |
| 20260505121507 | 53 | 294 | 4.0 | 5.0 | 0.00 | 0.00 | 0.70 | 86 | 1011.2 |
| 20260505120500 | 53 | 294 | 1.0 | 2.0 | 0.00 | 0.00 | 0.70 | 84 | 1011.2 |
| 20260505120442 | 54 | 294 | 1.0 | 2.0 | 0.00 | 0.00 | 0.70 | 84 | 1011.3 |
| 20260505120433 | 54 | 293 | 1.0 | 2.0 | 0.00 | 0.00 | 0.70 | 85 | 1011.4 |
| 20260505114524 | 54 | 298 | 0.0 | 1.0 | 0.00 | 0.00 | 0.70 | 82 | 1011.3 |
| 20260505102133 | 53 | 298 | 0.0 | 1.0 | 0.00 | 0.00 | 0.70 | 80 | 1011.8 |
| 20260505102125 | 53 | 298 | 0.0 | 0.0 | 0.00 | 0.00 | 0.70 | 80 | 1011.8 |
| 20260505101041 | 53 | 298 | 1.0 | 2.0 | 0.00 | 0.00 | 0.70 | 84 | 1011.6 |
| 20260505100028 | 53 | 298 | 3.0 | 4.0 | 0.00 | 0.00 | 0.70 | 87 | 1011.7 |
| 20260505095004 | 51 | 297 | 1.0 | 2.0 | 0.00 | 0.00 | 0.70 | 86 | 1011.7 |
| 20260505093955 | 52 | 298 | 1.0 | 2.0 | 0.00 | 0.00 | 0.70 | 86 | 1011.9 |
| 20260505092942 | 52 | 298 | 0.0 | 1.0 | 0.07 | 0.00 | 0.70 | 84 | 1011.8 |
| 20260505091924 | 51 | 298 | 0.0 | 0.0 | 0.00 | 0.00 | 0.69 | 84 | 1011.9 |
| 20260505090900 | 51 | 298 | 1.0 | 2.0 | 0.00 | 0.00 | 0.69 | 85 | 1011.8 |
| 20260505085840 | 51 | 298 | 1.0 | 1.0 | 0.00 | 0.00 | 0.69 | 84 | 1011.5 |
| 20260505084828 | 50 | 298 | 0.0 | 0.0 | 0.00 | 0.00 | 0.69 | 88 | 1011.6 |
| 20260505083804 | 50 | 298 | 0.0 | 0.0 | 0.00 | 0.00 | 0.69 | 90 | 1011.4 |
| 20260505082740 | 49 | 298 | 0.0 | 1.0 | 0.00 | 0.00 | 0.69 | 93 | 1011.7 |
| 20260505081716 | 49 | 298 | 0.0 | 0.0 | 0.00 | 0.00 | 0.69 | 97 | 1011.4 |
| 20260505080652 | 48 | 298 | 0.0 | 2.0 | 0.00 | 0.00 | 0.69 | 98 | 1011.5 |
| 20260505075640 | 49 | 300 | 0.0 | 0.0 | 0.00 | 0.00 | 0.69 | 99 | 1011.4 |
| 20260505074622 | 47 | 300 | 1.0 | 2.0 | 0.00 | 0.00 | 0.69 | 99 | 1011.6 |
| 20260505073556 | 47 | 301 | 0.0 | 0.0 | 0.00 | 0.00 | 0.69 | 99 | 1011.7 |
| 20260505072540 | 46 | 301 | 0.0 | 0.0 | 0.00 | 0.00 | 0.69 | 99 | 1011.6 |
| 20260505071524 | 45 | 301 | 0.0 | 0.0 | 0.00 | 0.00 | 0.69 | 99 | 1011.7 |
| 20260505070501 | 46 | 301 | 0.0 | 1.0 | 0.00 | 0.00 | 0.69 | 99 | 1011.9 |
| 20260505065440 | 45 | 301 | 0.0 | 0.0 | 0.00 | 0.00 | 0.69 | 99 | 1011.6 |
| 20260505064428 | 44 | 301 | 0.0 | 0.0 | 0.00 | 0.00 | 0.69 | 99 | 1011.9 |
| 20260505063405 | 45 | 301 | 0.0 | 0.0 | 0.00 | 0.00 | 0.69 | 99 | 1011.7 |
| 20260505062341 | 44 | 301 | 0.0 | 0.0 | 0.00 | 0.00 | 0.69 | 99 | 1011.7 |
| 20260505061316 | 44 | 301 | 0.0 | 0.0 | 0.00 | 0.00 | 0.69 | 99 | 1011.7 |
| 20260505060253 | 44 | 301 | 0.0 | 0.0 | 0.00 | 0.00 | 0.69 | 99 | 1011.8 |
| 20260505055240 | 45 | 301 | 0.0 | 0.0 | 0.00 | 0.00 | 0.69 | 99 | 1011.5 |
| 20260505054220 | 44 | 301 | 0.0 | 0.0 | 0.00 | 0.00 | 0.69 | 99 | 1011.3 |
| 20260505053156 | 44 | 301 | 0.0 | 0.0 | 0.00 | 0.00 | 0.69 | 99 | 1011.6 |
| 20260505052140 | 44 | 301 | 0.0 | 0.0 | 0.00 | 0.00 | 0.69 | 99 | 1011.5 |
| 20260505051124 | 43 | 301 | 0.0 | 0.0 | 0.00 | 0.00 | 0.69 | 99 | 1011.5 |
| 20260505040916 | 43 | 301 | 0.0 | 0.0 | 0.00 | 0.00 | 0.69 | 99 | 1011.8 |
| 20260505035852 | 43 | 301 | 0.0 | 0.0 | 0.00 | 0.00 | 0.69 | 99 | 1012.1 |
| 20260505034841 | 43 | 302 | 1.0 | 2.0 | 0.04 | 0.00 | 0.69 | 99 | 1012.0 |
| 20260505033820 | 43 | 301 | 0.0 | 0.0 | 0.00 | 0.00 | 0.68 | 99 | 1012.0 |
| 20260505032756 | 43 | 301 | 0.0 | 1.0 | 0.07 | 0.00 | 0.68 | 99 | 1012.3 |
| 20260505031740 | 45 | 300 | 1.0 | 1.0 | 0.11 | 0.00 | 0.67 | 99 | 1012.5 |
| 20260505030724 | 45 | 300 | 0.0 | 0.0 | 0.35 | 0.00 | 0.65 | 99 | 1012.4 |
| 20260505025701 | 46 | 299 | 0.0 | 0.0 | 0.78 | 0.00 | 0.59 | 99 | 1012.2 |
| 20260505024640 | 46 | 300 | 0.0 | 1.0 | 0.54 | 0.00 | 0.46 | 99 | 1012.8 |
| 20260505023628 | 47 | 300 | 1.0 | 1.0 | 0.30 | 0.00 | 0.37 | 99 | 1013.0 |
| 20260505022604 | 47 | 299 | 0.0 | 0.0 | 0.30 | 0.00 | 0.31 | 99 | 1012.9 |
| 20260505021543 | 47 | 299 | 0.0 | 0.0 | 0.23 | 0.00 | 0.28 | 99 | 1012.9 |
| 20260505020532 | 47 | 300 | 0.0 | 0.0 | 0.26 | 0.00 | 0.24 | 99 | 1012.9 |
| 20260505015524 | 47 | 300 | 0.0 | 0.0 | 0.11 | 0.00 | 0.19 | 99 | 1012.9 |
| 20260505014500 | 47 | 299 | 0.0 | 0.0 | 0.04 | 0.00 | 0.17 | 99 | 1012.9 |
| 20260505013436 | 47 | 300 | 0.0 | 0.0 | 0.07 | 0.00 | 0.16 | 99 | 1012.8 |
| 20260505012412 | 47 | 300 | 0.0 | 0.0 | 0.11 | 0.00 | 0.15 | 99 | 1012.9 |